This demonstration page uses our WeatherBlox Daily Observations layout. Learn more.

Left ArrowRight Arrow

47.50024, -111.30081

Hourly Observations for March 12, 2015

Temp ( °F °C ) Dew Point ( °F °C ) Humidity (%) Winds ( mph kmh ) Pressure ( in mb ) Visibility ( mi km ) Precip ( " mm )
12:53 am 00:53 Clear 42 5.6 32 0 68 68 SW 12 19 30.01 1016 10 16 0.00 0.00
1:53 am 01:53 Clear 40 4.4 32 0 73 73 SW 14 22 30.02 1017 10 16 0.00 0.00
2:53 am 02:53 Clear 40 4.4 32 0 73 73 SW 13 20 30.04 1017 10 16 0.00 0.00
3:53 am 03:53 Clear 39 3.9 32 0 76 76 SW 14 22 30.06 1018 10 16 0.00 0.00
4:53 am 04:53 Clear 37 2.8 31 -0.6 79 79 SSW 13 20 30.08 1019 10 16 0.00 0.00
5:53 am 05:53 Clear 37 2.8 32 0 82 82 SSW 14 22 30.11 1020 10 16 0.00 0.00
6:53 am 06:53 Clear 39 3.9 32 0 76 76 SSW 13 20 30.14 1021 10 16 0.00 0.00
7:53 am 07:53 Sunny 40 4.4 32 0 73 73 SSW 13 20 30.16 1021 10 16 0.00 0.00
8:53 am 08:53 Partly Cloudy 45 7.2 34 1.1 66 66 SW 16 26 30.16 1021 10 16 0.00 0.00
9:53 am 09:53 Sunny 51 10.6 35 1.7 54 54 SW 17 28 30.16 1021 10 16 0.00 0.00
10:53 am 10:53 Sunny 57 13.9 34 1.1 42 42 WSW 18 30 30.16 1021 10 16 0.00 0.00
11:53 am 11:53 Sunny 58 14.4 34 1.1 41 41 WSW 26 43 30.17 1022 10 16 0.00 0.00
12:53 pm 12:53 Partly Cloudy 60 15.6 34 1.1 38 38 SW 23 37 30.19 1022 10 16 0.00 0.00
1:53 pm 13:53 Partly Cloudy 62 16.7 30 -1.1 30 30 WSW 24 39 30.19 1022 10 16 0.00 0.00
2:53 pm 14:53 Mostly Sunny 60 15.6 31 -0.6 33 33 WSW 25 41 30.21 1023 10 16 0.00 0.00
3:53 pm 15:53 Sunny 59 15 32 0 36 36 WSW 23 37 30.22 1023 10 16 0.00 0.00
4:53 pm 16:53 Sunny 58 14.4 31 -0.6 36 36 WSW 23 37 30.23 1024 10 16 0.00 0.00
5:53 pm 17:53 Sunny 57 13.9 29 -1.7 34 34 WSW 22 35 30.26 1025 10 16 0.00 0.00
6:53 pm 18:53 Sunny 52 11.1 30 -1.1 43 43 WSW 14 22 30.28 1025 10 16 0.00 0.00
7:53 pm 19:53 Clear 44 6.7 30 -1.1 58 58 SW 10 17 30.33 1027 10 16 0.00 0.00
8:53 pm 20:53 Clear 43 6.1 27 -2.8 53 53 WSW 9 15 30.33 1027 10 16 0.00 0.00
9:53 pm 21:53 Clear 42 5.6 27 -2.8 55 55 SW 12 19 30.33 1027 10 16 0.00 0.00
10:53 pm 22:53 Clear 40 4.4 27 -2.8 60 60 WSW 12 19 30.33 1027 10 16 0.00 0.00
11:53 pm 23:53 Clear 42 5.6 27 -2.8 55 55 SW 13 20 30.33 1027 10 16 0.00 0.00

Powered by AerisWeather